SUR4070 SLLP-SARI

Flight info

Callsign SUR4070
Flight time 2h 41m
Altitude 30999
Route GEKA1C VAPAS UW18 ALC UM657 VAS UM548 ESDIM
Aircraft E190/M-S/1200

Departure

Time 2026-04-22 17:35
Airport El Alto International Airport (SLLP)

Arrival

Time 2026-04-22 20:16
Airport Cataratas Del Iguazú International Airport (SARI)
Time Latitude Longitude Altitude Speed Heading
2026-04-22 17:27 -16.50978 -68.17874 13356 ft 0 kts
2026-04-22 17:28 -16.50976 -68.17873 13356 ft 0 kts 16°
2026-04-22 17:28 -16.50970 -68.17862 13357 ft 2 kts 91°
2026-04-22 17:28 -16.50983 -68.17856 13357 ft 4 kts 219°
2026-04-22 17:29 -16.51011 -68.17895 13353 ft 9 kts 233°
2026-04-22 17:29 -16.51063 -68.17954 13348 ft 12 kts 225°
2026-04-22 17:29 -16.51135 -68.18028 13341 ft 15 kts 225°
2026-04-22 17:29 -16.51213 -68.18115 13329 ft 13 kts 231°
2026-04-22 17:30 -16.51250 -68.18166 13325 ft 9 kts 235°
2026-04-22 17:30 -16.51290 -68.18229 13320 ft 11 kts 239°
2026-04-22 17:30 -16.51340 -68.18356 13310 ft 24 kts 258°
2026-04-22 17:30 -16.51351 -68.18552 13298 ft 30 kts 270°
2026-04-22 17:31 -16.51345 -68.18823 13279 ft 44 kts 270°
2026-04-22 17:31 -16.51335 -68.19190 13261 ft 52 kts 272°
2026-04-22 17:31 -16.51324 -68.19562 13244 ft 50 kts 271°
2026-04-22 17:31 -16.51306 -68.19920 13225 ft 48 kts 271°
2026-04-22 17:32 -16.51299 -68.20266 13207 ft 47 kts 272°
2026-04-22 17:32 -16.51291 -68.20584 13189 ft 39 kts 274°
2026-04-22 17:32 -16.51280 -68.20836 13175 ft 28 kts 271°
2026-04-22 17:32 -16.51264 -68.21008 13165 ft 15 kts 283°
2026-04-22 17:33 -16.51270 -68.21047 13163 ft 6 kts 179°
2026-04-22 17:33 -16.51276 -68.21040 13164 ft 0 kts 97°
2026-04-22 17:33 -16.51287 -68.20946 13168 ft 38 kts 90°
2026-04-22 17:33 -16.51301 -68.20477 13196 ft 89 kts 87°
2026-04-22 17:34 -16.51325 -68.19673 13239 ft 130 kts 88°
2026-04-22 17:34 -16.51355 -68.18584 13296 ft 167 kts 92°
2026-04-22 17:34 -16.51377 -68.17293 13522 ft 184 kts 90°
2026-04-22 17:34 -16.51348 -68.15871 13663 ft 212 kts 92°
2026-04-22 17:35 -16.51379 -68.14214 13991 ft 228 kts 91°
2026-04-22 17:35 -16.51400 -68.12487 14532 ft 236 kts 91°
2026-04-22 17:35 -16.51415 -68.10652 15069 ft 245 kts 91°
2026-04-22 17:35 -16.51851 -68.08967 15582 ft 249 kts 128°
2026-04-22 17:36 -16.53192 -68.07840 16179 ft 250 kts 154°
2026-04-22 17:36 -16.54754 -68.07052 16698 ft 257 kts 155°
2026-04-22 17:36 -16.56414 -68.06224 17206 ft 266 kts 155°
2026-04-22 17:36 -16.58106 -68.05386 17707 ft 275 kts 155°
2026-04-22 17:37 -16.59854 -68.04520 18208 ft 284 kts 155°
2026-04-22 17:37 -16.61669 -68.03624 18709 ft 292 kts 155°
2026-04-22 17:37 -16.63551 -68.02694 19214 ft 301 kts 155°
2026-04-22 17:37 -16.65456 -68.01753 19708 ft 310 kts 155°
2026-04-22 17:38 -16.67424 -68.00781 20203 ft 318 kts 155°
2026-04-22 17:38 -16.69463 -67.99773 20700 ft 325 kts 155°
2026-04-22 17:38 -16.71520 -67.98756 21185 ft 329 kts 155°
2026-04-22 17:38 -16.73585 -67.97732 21661 ft 331 kts 154°
2026-04-22 17:39 -16.75409 -67.96267 22160 ft 335 kts 134°
2026-04-22 17:39 -16.77044 -67.94461 22671 ft 338 kts 134°
2026-04-22 17:39 -16.80316 -67.90805 23649 ft 350 kts 134°
2026-04-22 17:40 -16.81996 -67.88924 24139 ft 355 kts 134°
2026-04-22 17:40 -16.83692 -67.87023 24626 ft 360 kts 134°
2026-04-22 17:40 -16.85411 -67.85096 25113 ft 364 kts 134°
2026-04-22 17:40 -16.87125 -67.83173 25591 ft 368 kts 134°
2026-04-22 17:41 -16.88883 -67.81200 26076 ft 372 kts 134°
2026-04-22 17:41 -16.90655 -67.79211 26558 ft 376 kts 134°
2026-04-22 17:41 -16.92460 -67.77185 27042 ft 379 kts 134°
2026-04-22 17:41 -16.94236 -67.75191 27515 ft 382 kts 134°
2026-04-22 17:42 -16.96066 -67.73134 27999 ft 385 kts 134°
2026-04-22 17:42 -16.97888 -67.71087 28476 ft 387 kts 134°
2026-04-22 17:42 -16.99119 -67.69703 28797 ft 388 kts 134°
2026-04-22 17:42 -17.01561 -67.66957 29431 ft 390 kts 134°
2026-04-22 17:43 -17.03340 -67.64957 29890 ft 391 kts 134°
2026-04-22 17:43 -17.05184 -67.62882 30364 ft 392 kts 134°
2026-04-22 17:43 -17.07043 -67.60789 30836 ft 393 kts 134°
2026-04-22 17:43 -17.08925 -67.58670 30980 ft 403 kts 134°
2026-04-22 17:44 -17.10870 -67.56480 31009 ft 415 kts 134°
2026-04-22 17:44 -17.12870 -67.54227 31014 ft 428 kts 134°
2026-04-22 17:44 -17.14921 -67.51942 31011 ft 439 kts 134°
2026-04-22 17:44 -17.17045 -67.49606 31009 ft 451 kts 134°
2026-04-22 17:45 -17.19243 -67.47186 31007 ft 462 kts 134°
2026-04-22 17:45 -17.21500 -67.44700 31005 ft 473 kts 134°
2026-04-22 17:45 -17.23783 -67.42182 31002 ft 478 kts 134°
2026-04-22 17:46 -17.28341 -67.37155 30997 ft 477 kts 134°
2026-04-22 17:46 -17.32909 -67.32113 30996 ft 478 kts 134°
2026-04-22 17:47 -17.37481 -67.27062 30996 ft 478 kts 134°
2026-04-22 17:47 -17.42045 -67.22017 30996 ft 477 kts 134°
2026-04-22 17:48 -17.45835 -67.17825 30996 ft 478 kts 134°
2026-04-22 17:48 -17.51188 -67.11897 30996 ft 479 kts 134°
2026-04-22 17:49 -17.55764 -67.06827 30997 ft 480 kts 134°
2026-04-22 17:49 -17.60337 -67.01756 30997 ft 481 kts 134°
2026-04-22 17:50 -17.64935 -66.96652 30997 ft 481 kts 133°
2026-04-22 17:50 -17.69526 -66.91553 30997 ft 481 kts 133°
2026-04-22 17:51 -17.74115 -66.86452 30998 ft 481 kts 133°
2026-04-22 17:51 -17.78693 -66.81359 30998 ft 481 kts 133°
2026-04-22 17:52 -17.83297 -66.76233 30998 ft 481 kts 133°
2026-04-22 17:52 -17.87890 -66.71114 30998 ft 481 kts 133°
2026-04-22 17:53 -17.92440 -66.66040 30998 ft 481 kts 133°
2026-04-22 17:53 -17.97044 -66.60901 30998 ft 481 kts 133°
2026-04-22 17:54 -18.01638 -66.55770 30998 ft 481 kts 133°
2026-04-22 17:54 -18.06210 -66.50659 30999 ft 481 kts 133°
2026-04-22 17:55 -18.10008 -66.46410 30999 ft 481 kts 133°
2026-04-22 17:55 -18.15379 -66.40395 30998 ft 481 kts 133°
2026-04-22 17:56 -18.19968 -66.35253 30998 ft 481 kts 133°
2026-04-22 17:56 -18.24529 -66.30138 30996 ft 481 kts 133°
2026-04-22 17:57 -18.29123 -66.24981 30996 ft 481 kts 133°
2026-04-22 17:57 -18.33703 -66.19836 30996 ft 482 kts 133°
2026-04-22 17:58 -18.38282 -66.14687 30997 ft 482 kts 133°
2026-04-22 17:58 -18.42853 -66.09543 30997 ft 482 kts 133°
2026-04-22 17:59 -18.47440 -66.04376 30997 ft 482 kts 133°
2026-04-22 17:59 -18.51993 -65.99244 30997 ft 482 kts 133°
2026-04-22 18:00 -18.55801 -65.94949 30998 ft 482 kts 133°
2026-04-22 18:00 -18.61133 -65.88929 30998 ft 482 kts 133°
2026-04-22 18:01 -18.65721 -65.83743 30998 ft 481 kts 133°
2026-04-22 18:01 -18.70264 -65.78606 30998 ft 481 kts 133°
2026-04-22 18:02 -18.74836 -65.73429 30998 ft 482 kts 133°
2026-04-22 18:02 -18.79411 -65.68246 30998 ft 481 kts 133°
2026-04-22 18:03 -18.83876 -65.63184 30998 ft 481 kts 133°
2026-04-22 18:03 -18.88414 -65.58034 30999 ft 482 kts 133°
2026-04-22 18:04 -18.92993 -65.52833 30999 ft 482 kts 133°
2026-04-22 18:04 -18.97561 -65.47639 30999 ft 482 kts 133°
2026-04-22 18:05 -19.02112 -65.42461 30999 ft 481 kts 133°
2026-04-22 18:05 -19.06671 -65.37270 31000 ft 482 kts 133°
2026-04-22 18:06 -19.11214 -65.32092 30997 ft 481 kts 133°
2026-04-22 18:06 -19.15772 -65.26892 30997 ft 481 kts 133°
2026-04-22 18:07 -19.19545 -65.22585 30997 ft 480 kts 133°
2026-04-22 18:07 -19.24823 -65.16554 30997 ft 480 kts 133°
2026-04-22 18:08 -19.28930 -65.10957 31003 ft 481 kts 124°
2026-04-22 18:08 -19.32660 -65.05094 30998 ft 481 kts 124°
2026-04-22 18:09 -19.36404 -64.99213 30998 ft 481 kts 124°
2026-04-22 18:09 -19.40075 -64.93444 30998 ft 481 kts 124°
2026-04-22 18:10 -19.43781 -64.87611 30998 ft 480 kts 124°
2026-04-22 18:10 -19.47517 -64.81727 30998 ft 480 kts 124°
2026-04-22 18:11 -19.51234 -64.75869 30999 ft 482 kts 124°
2026-04-22 18:11 -19.54963 -64.69983 30999 ft 482 kts 124°
2026-04-22 18:12 -19.58701 -64.64078 31000 ft 481 kts 124°
2026-04-22 18:12 -19.61811 -64.59161 31000 ft 481 kts 124°
2026-04-22 18:13 -19.66153 -64.52290 31000 ft 481 kts 124°
2026-04-22 18:13 -19.69871 -64.46400 31001 ft 481 kts 124°
2026-04-22 18:14 -19.73584 -64.40511 31001 ft 481 kts 124°
2026-04-22 18:14 -19.77276 -64.34651 31001 ft 481 kts 123°
2026-04-22 18:15 -19.80983 -64.28760 30999 ft 480 kts 123°
2026-04-22 18:15 -19.84688 -64.22868 31000 ft 481 kts 123°
2026-04-22 18:16 -19.88398 -64.16961 31000 ft 481 kts 123°
2026-04-22 18:16 -19.92100 -64.11062 31000 ft 481 kts 123°
2026-04-22 18:17 -19.95810 -64.05143 31000 ft 480 kts 124°
2026-04-22 18:17 -19.99512 -63.99232 31000 ft 479 kts 124°
2026-04-22 18:18 -20.03191 -63.93351 31000 ft 481 kts 124°
2026-04-22 18:18 -20.06904 -63.87410 31000 ft 479 kts 124°
2026-04-22 18:19 -20.10587 -63.81512 31000 ft 480 kts 124°
2026-04-22 18:19 -20.14256 -63.75630 31001 ft 480 kts 124°
2026-04-22 18:20 -20.17967 -63.69673 31001 ft 480 kts 124°
2026-04-22 18:20 -20.21640 -63.63773 31001 ft 480 kts 124°
2026-04-22 18:21 -20.25314 -63.57865 31001 ft 479 kts 124°
2026-04-22 18:21 -20.28972 -63.51978 31001 ft 479 kts 124°
2026-04-22 18:22 -20.32664 -63.46027 31001 ft 479 kts 124°
2026-04-22 18:22 -20.36334 -63.40109 31001 ft 479 kts 124°
2026-04-22 18:23 -20.40001 -63.34187 31001 ft 479 kts 124°
2026-04-22 18:23 -20.43668 -63.28260 30999 ft 479 kts 124°
2026-04-22 18:24 -20.49178 -63.19344 31000 ft 479 kts 124°
2026-04-22 18:25 -20.54662 -63.10454 31000 ft 480 kts 123°
2026-04-22 18:25 -20.58326 -63.04508 31000 ft 480 kts 124°
2026-04-22 18:26 -20.63811 -62.95593 31001 ft 480 kts 123°
2026-04-22 18:26 -20.67468 -62.89643 31001 ft 480 kts 124°
2026-04-22 18:27 -20.71111 -62.83709 31001 ft 480 kts 124°
2026-04-22 18:27 -20.74784 -62.77720 31001 ft 479 kts 124°
2026-04-22 18:28 -20.78421 -62.71783 31001 ft 478 kts 124°
2026-04-22 18:28 -20.82043 -62.65866 31001 ft 478 kts 124°
2026-04-22 18:29 -20.85664 -62.59943 31001 ft 478 kts 124°
2026-04-22 18:29 -20.89293 -62.54001 31001 ft 478 kts 124°
2026-04-22 18:30 -20.94774 -62.45016 31002 ft 481 kts 123°
2026-04-22 18:31 -20.98399 -62.39063 31001 ft 478 kts 124°
2026-04-22 18:31 -21.02033 -62.33091 31000 ft 478 kts 123°
2026-04-22 18:32 -21.05637 -62.27162 30999 ft 478 kts 123°
2026-04-22 18:32 -21.09247 -62.21217 31000 ft 478 kts 123°
2026-04-22 18:33 -21.12867 -62.15249 31000 ft 477 kts 123°
2026-04-22 18:33 -21.16482 -62.09282 31001 ft 477 kts 123°
2026-04-22 18:34 -21.20078 -62.03341 31001 ft 476 kts 123°
2026-04-22 18:34 -21.23670 -61.97400 31001 ft 475 kts 123°
2026-04-22 18:35 -21.27260 -61.91457 31001 ft 475 kts 123°
2026-04-22 18:35 -21.30856 -61.85495 31001 ft 476 kts 123°
2026-04-22 18:36 -21.34437 -61.79554 31001 ft 476 kts 123°
2026-04-22 18:36 -21.38016 -61.73608 31001 ft 476 kts 123°
2026-04-22 18:37 -21.41620 -61.67616 31001 ft 477 kts 123°
2026-04-22 18:37 -21.44608 -61.62642 31001 ft 477 kts 123°
2026-04-22 18:38 -21.48804 -61.55651 31002 ft 477 kts 123°
2026-04-22 18:38 -21.52386 -61.49675 31002 ft 478 kts 123°
2026-04-22 18:39 -21.57780 -61.40664 31002 ft 478 kts 123°
2026-04-22 18:39 -21.61378 -61.34645 31002 ft 480 kts 123°
2026-04-22 18:40 -21.64960 -61.28647 31000 ft 479 kts 123°
2026-04-22 18:40 -21.68555 -61.22619 31000 ft 480 kts 123°
2026-04-22 18:41 -21.72163 -61.16565 31000 ft 480 kts 123°
2026-04-22 18:41 -21.75737 -61.10559 31000 ft 480 kts 123°
2026-04-22 18:42 -21.79355 -61.04473 31000 ft 481 kts 123°
2026-04-22 18:42 -21.82942 -60.98433 31001 ft 480 kts 123°
2026-04-22 18:43 -21.86532 -60.92381 31001 ft 480 kts 123°
2026-04-22 18:43 -21.90125 -60.86316 31001 ft 479 kts 123°
2026-04-22 18:44 -21.93675 -60.80319 31001 ft 479 kts 123°
2026-04-22 18:44 -21.97253 -60.74266 31001 ft 480 kts 123°
2026-04-22 18:45 -22.00765 -60.68319 31001 ft 479 kts 123°
2026-04-22 18:45 -22.04346 -60.62490 30998 ft 478 kts 129°
2026-04-22 18:46 -22.09156 -60.57565 31008 ft 478 kts 140°
2026-04-22 18:46 -22.14090 -60.52989 31002 ft 475 kts 140°
2026-04-22 18:47 -22.19064 -60.48323 31002 ft 476 kts 140°
2026-04-22 18:47 -22.24048 -60.43640 31002 ft 476 kts 140°
2026-04-22 18:48 -22.29075 -60.38911 31002 ft 477 kts 140°
2026-04-22 18:48 -22.34069 -60.34208 31001 ft 478 kts 139°
2026-04-22 18:49 -22.39063 -60.29501 31000 ft 478 kts 139°
2026-04-22 18:49 -22.44090 -60.24758 31000 ft 479 kts 139°
2026-04-22 18:50 -22.49095 -60.20031 31000 ft 479 kts 139°
2026-04-22 18:50 -22.54113 -60.15287 31000 ft 480 kts 139°
2026-04-22 18:51 -22.59154 -60.10517 31000 ft 479 kts 139°
2026-04-22 18:51 -22.64154 -60.05780 31001 ft 479 kts 139°
2026-04-22 18:52 -22.69166 -60.01028 31001 ft 480 kts 139°
2026-04-22 18:52 -22.74215 -59.96236 31001 ft 480 kts 139°
2026-04-22 18:53 -22.79220 -59.91481 31001 ft 480 kts 139°
2026-04-22 18:53 -22.84256 -59.86690 31001 ft 479 kts 139°
2026-04-22 18:54 -22.89242 -59.81943 31001 ft 480 kts 139°
2026-04-22 18:54 -22.94278 -59.77143 31001 ft 480 kts 139°
2026-04-22 18:55 -22.99279 -59.72372 31002 ft 479 kts 139°
2026-04-22 18:55 -23.04287 -59.67590 31002 ft 479 kts 139°
2026-04-22 18:56 -23.09286 -59.62811 31002 ft 479 kts 139°
2026-04-22 18:56 -23.14262 -59.58049 31001 ft 479 kts 139°
2026-04-22 18:57 -23.19262 -59.53258 31002 ft 479 kts 139°
2026-04-22 18:57 -23.24252 -59.48473 31002 ft 478 kts 139°
2026-04-22 18:58 -23.29240 -59.43685 31002 ft 479 kts 139°
2026-04-22 18:58 -23.34226 -59.38894 31002 ft 479 kts 139°
2026-04-22 18:59 -23.39222 -59.34088 31001 ft 478 kts 139°
2026-04-22 18:59 -23.44206 -59.29288 31000 ft 478 kts 139°
2026-04-22 19:00 -23.49187 -59.24486 31000 ft 479 kts 139°
2026-04-22 19:00 -23.54167 -59.19680 31000 ft 478 kts 139°
2026-04-22 19:01 -23.59146 -59.14871 31000 ft 478 kts 139°
2026-04-22 19:01 -23.64151 -59.10031 31001 ft 478 kts 139°
2026-04-22 19:02 -23.69124 -59.05216 31001 ft 479 kts 139°
2026-04-22 19:02 -23.74105 -59.00389 31001 ft 479 kts 139°
2026-04-22 19:03 -23.79046 -58.95596 30993 ft 464 kts 139°
2026-04-22 19:03 -23.81386 -58.93323 30983 ft 439 kts 139°
2026-04-22 19:03 -23.83604 -58.91169 30976 ft 417 kts 139°
2026-04-22 19:04 -23.85741 -58.89092 30972 ft 395 kts 139°
2026-04-22 19:04 -23.87730 -58.87159 30977 ft 382 kts 139°
2026-04-22 19:04 -23.91761 -58.83237 31007 ft 391 kts 139°
2026-04-22 19:05 -23.95830 -58.79274 31002 ft 392 kts 139°
2026-04-22 19:05 -23.99896 -58.75312 31001 ft 392 kts 139°
2026-04-22 19:06 -24.03965 -58.71343 31002 ft 392 kts 139°
2026-04-22 19:07 -24.10040 -58.65411 30857 ft 393 kts 139°
2026-04-22 19:07 -24.12060 -58.63436 30654 ft 391 kts 139°
2026-04-22 19:07 -24.14066 -58.61475 30453 ft 388 kts 139°
2026-04-22 19:07 -24.16068 -58.59516 30253 ft 387 kts 139°
2026-04-22 19:08 -24.18037 -58.57589 30056 ft 385 kts 139°
2026-04-22 19:08 -24.20028 -58.55639 29858 ft 385 kts 139°
2026-04-22 19:08 -24.21990 -58.53717 29662 ft 384 kts 139°
2026-04-22 19:08 -24.23954 -58.51792 29465 ft 382 kts 139°
2026-04-22 19:09 -24.25984 -58.49803 29261 ft 381 kts 139°
2026-04-22 19:09 -24.27941 -58.47883 29063 ft 380 kts 139°
2026-04-22 19:09 -24.29276 -58.46574 28928 ft 379 kts 139°
2026-04-22 19:09 -24.31838 -58.44059 28668 ft 377 kts 139°
2026-04-22 19:10 -24.33781 -58.42151 28470 ft 376 kts 139°
2026-04-22 19:10 -24.35707 -58.40258 28273 ft 374 kts 139°
2026-04-22 19:10 -24.37657 -58.38341 28072 ft 373 kts 139°
2026-04-22 19:10 -24.39565 -58.36465 27876 ft 372 kts 139°
2026-04-22 19:11 -24.41472 -58.34589 27679 ft 370 kts 139°
2026-04-22 19:11 -24.43369 -58.32722 27479 ft 369 kts 139°
2026-04-22 19:11 -24.45285 -58.30835 27276 ft 367 kts 139°
2026-04-22 19:11 -24.47183 -58.28966 27075 ft 366 kts 139°
2026-04-22 19:12 -24.49081 -58.27096 26873 ft 365 kts 139°
2026-04-22 19:12 -24.50955 -58.25249 26673 ft 363 kts 139°
2026-04-22 19:12 -24.52840 -58.23389 26471 ft 362 kts 139°
2026-04-22 19:12 -24.54699 -58.21555 26271 ft 361 kts 139°
2026-04-22 19:13 -24.56569 -58.19709 26070 ft 359 kts 139°
2026-04-22 19:13 -24.58433 -58.17869 25868 ft 358 kts 139°
2026-04-22 19:13 -24.60286 -58.16038 25667 ft 357 kts 139°
2026-04-22 19:13 -24.62121 -58.14225 25467 ft 356 kts 139°
2026-04-22 19:14 -24.63951 -58.12415 25267 ft 354 kts 139°
2026-04-22 19:14 -24.65800 -58.10586 25064 ft 353 kts 139°
2026-04-22 19:14 -24.67621 -58.08784 24863 ft 352 kts 139°
2026-04-22 19:14 -24.69425 -58.06998 24664 ft 351 kts 139°
2026-04-22 19:15 -24.70626 -58.05809 24531 ft 350 kts 139°
2026-04-22 19:15 -24.73053 -58.03405 24261 ft 348 kts 139°
2026-04-22 19:15 -24.74845 -58.01629 24061 ft 347 kts 139°
2026-04-22 19:15 -24.76631 -57.99858 23861 ft 346 kts 139°
2026-04-22 19:16 -24.78419 -57.98083 23660 ft 344 kts 139°
2026-04-22 19:16 -24.80194 -57.96322 23460 ft 343 kts 139°
2026-04-22 19:16 -24.81937 -57.94592 23262 ft 342 kts 139°
2026-04-22 19:16 -24.83737 -57.92804 23060 ft 341 kts 139°
2026-04-22 19:17 -24.85479 -57.91073 23009 ft 339 kts 139°
2026-04-22 19:17 -24.87242 -57.89322 23003 ft 340 kts 139°
2026-04-22 19:17 -24.88994 -57.87579 23002 ft 340 kts 139°
2026-04-22 19:17 -24.90749 -57.85834 23001 ft 341 kts 139°
2026-04-22 19:18 -24.92522 -57.84069 23001 ft 341 kts 139°
2026-04-22 19:18 -24.94261 -57.82338 23001 ft 341 kts 139°
2026-04-22 19:18 -24.96022 -57.80584 23001 ft 341 kts 139°
2026-04-22 19:18 -24.97806 -57.78807 23001 ft 341 kts 139°
2026-04-22 19:19 -24.99564 -57.77054 23001 ft 341 kts 139°
2026-04-22 19:19 -25.01309 -57.75314 23001 ft 341 kts 139°
2026-04-22 19:19 -25.03080 -57.73548 23001 ft 341 kts 139°
2026-04-22 19:19 -25.04833 -57.71798 23001 ft 341 kts 139°
2026-04-22 19:20 -25.06603 -57.70031 23001 ft 342 kts 139°
2026-04-22 19:20 -25.08346 -57.68290 23001 ft 342 kts 139°
2026-04-22 19:20 -25.10127 -57.66510 23001 ft 342 kts 139°
2026-04-22 19:20 -25.11868 -57.64771 23001 ft 342 kts 139°
2026-04-22 19:21 -25.13638 -57.63000 23001 ft 341 kts 139°
2026-04-22 19:21 -25.15395 -57.61242 23001 ft 341 kts 139°
2026-04-22 19:21 -25.17148 -57.59488 23001 ft 341 kts 139°
2026-04-22 19:21 -25.18926 -57.57708 23001 ft 341 kts 139°
2026-04-22 19:22 -25.20670 -57.55961 23001 ft 341 kts 139°
2026-04-22 19:22 -25.22424 -57.54204 23002 ft 341 kts 139°
2026-04-22 19:22 -25.23969 -57.52214 23001 ft 343 kts 117°
2026-04-22 19:22 -25.24654 -57.49705 23038 ft 344 kts 100°
2026-04-22 19:23 -25.25024 -57.47086 23009 ft 344 kts 99°
2026-04-22 19:23 -25.25362 -57.44487 23003 ft 344 kts 98°
2026-04-22 19:23 -25.25682 -57.41948 23002 ft 344 kts 98°
2026-04-22 19:23 -25.26005 -57.39344 23002 ft 344 kts 98°
2026-04-22 19:24 -25.26331 -57.36705 23002 ft 344 kts 98°
2026-04-22 19:24 -25.26648 -57.34123 23001 ft 344 kts 98°
2026-04-22 19:24 -25.26972 -57.31486 23000 ft 344 kts 98°
2026-04-22 19:24 -25.27292 -57.28869 23000 ft 344 kts 98°
2026-04-22 19:25 -25.27613 -57.26249 23001 ft 344 kts 98°
2026-04-22 19:25 -25.27930 -57.23647 23001 ft 344 kts 98°
2026-04-22 19:25 -25.28249 -57.21027 23001 ft 344 kts 98°
2026-04-22 19:25 -25.28566 -57.18430 23001 ft 344 kts 98°
2026-04-22 19:26 -25.28885 -57.15805 23001 ft 344 kts 98°
2026-04-22 19:26 -25.29202 -57.13189 23001 ft 344 kts 98°
2026-04-22 19:26 -25.29516 -57.10596 23001 ft 344 kts 98°
2026-04-22 19:26 -25.29837 -57.07949 23001 ft 344 kts 98°
2026-04-22 19:27 -25.30151 -57.05349 23001 ft 344 kts 98°
2026-04-22 19:27 -25.30468 -57.02721 23001 ft 344 kts 98°
2026-04-22 19:27 -25.30783 -57.00108 23001 ft 344 kts 98°
2026-04-22 19:27 -25.31099 -56.97477 23001 ft 344 kts 98°
2026-04-22 19:28 -25.31412 -56.94870 23001 ft 344 kts 98°
2026-04-22 19:28 -25.31726 -56.92252 23001 ft 344 kts 98°
2026-04-22 19:28 -25.32037 -56.89650 23001 ft 344 kts 98°
2026-04-22 19:28 -25.32350 -56.87032 23001 ft 344 kts 98°
2026-04-22 19:29 -25.32663 -56.84407 23001 ft 344 kts 98°
2026-04-22 19:29 -25.32964 -56.81882 23001 ft 344 kts 98°
2026-04-22 19:29 -25.33273 -56.79290 23001 ft 344 kts 98°
2026-04-22 19:29 -25.33585 -56.76664 23001 ft 344 kts 98°
2026-04-22 19:30 -25.33793 -56.74912 23001 ft 344 kts 98°
2026-04-22 19:30 -25.34207 -56.71419 23001 ft 344 kts 98°
2026-04-22 19:30 -25.34515 -56.68808 23001 ft 344 kts 98°
2026-04-22 19:30 -25.34824 -56.66190 23001 ft 344 kts 98°
2026-04-22 19:31 -25.35136 -56.63549 23001 ft 344 kts 98°
2026-04-22 19:31 -25.35442 -56.60944 23001 ft 344 kts 98°
2026-04-22 19:31 -25.35749 -56.58332 23001 ft 344 kts 98°
2026-04-22 19:31 -25.36059 -56.55690 23001 ft 344 kts 98°
2026-04-22 19:32 -25.36366 -56.53072 23001 ft 344 kts 98°
2026-04-22 19:32 -25.36671 -56.50467 23002 ft 344 kts 98°
2026-04-22 19:32 -25.36976 -56.47858 23002 ft 344 kts 98°
2026-04-22 19:32 -25.37285 -56.45209 23002 ft 344 kts 98°
2026-04-22 19:33 -25.37586 -56.42616 23002 ft 344 kts 98°
2026-04-22 19:33 -25.37891 -56.39999 23002 ft 344 kts 98°
2026-04-22 19:33 -25.38196 -56.37364 22782 ft 345 kts 98°
2026-04-22 19:33 -25.38503 -56.34720 22526 ft 343 kts 97°
2026-04-22 19:34 -25.38803 -56.32123 22273 ft 340 kts 97°
2026-04-22 19:34 -25.39100 -56.29553 22022 ft 338 kts 97°
2026-04-22 19:34 -25.39396 -56.26986 21771 ft 337 kts 97°
2026-04-22 19:34 -25.39694 -56.24403 21518 ft 336 kts 97°
2026-04-22 19:35 -25.39987 -56.21852 21268 ft 335 kts 97°
2026-04-22 19:35 -25.40278 -56.19313 21018 ft 333 kts 97°
2026-04-22 19:35 -25.40472 -56.17626 20851 ft 332 kts 97°
2026-04-22 19:35 -25.40857 -56.14263 20517 ft 330 kts 97°
2026-04-22 19:36 -25.41142 -56.11770 20268 ft 329 kts 97°
2026-04-22 19:36 -25.41428 -56.09260 19964 ft 329 kts 97°
2026-04-22 19:36 -25.41712 -56.06769 19577 ft 323 kts 97°
2026-04-22 19:36 -25.41988 -56.04340 19191 ft 316 kts 97°
2026-04-22 19:37 -25.42258 -56.01966 18807 ft 310 kts 97°
2026-04-22 19:37 -25.42523 -55.99625 18422 ft 305 kts 97°
2026-04-22 19:37 -25.42784 -55.97322 18039 ft 300 kts 97°
2026-04-22 19:37 -25.43039 -55.95065 17658 ft 295 kts 97°
2026-04-22 19:38 -25.43292 -55.92825 17275 ft 291 kts 97°
2026-04-22 19:38 -25.43540 -55.90628 16894 ft 287 kts 97°
2026-04-22 19:38 -25.43785 -55.88453 16514 ft 283 kts 98°
2026-04-22 19:38 -25.44028 -55.86293 16132 ft 280 kts 98°
2026-04-22 19:39 -25.44266 -55.84174 15754 ft 277 kts 98°
2026-04-22 19:39 -25.44499 -55.82098 15379 ft 274 kts 98°
2026-04-22 19:39 -25.44733 -55.80009 14998 ft 271 kts 98°
2026-04-22 19:39 -25.44965 -55.77940 14619 ft 269 kts 98°
2026-04-22 19:40 -25.45193 -55.75898 14241 ft 266 kts 98°
2026-04-22 19:40 -25.45417 -55.73891 13867 ft 264 kts 98°
2026-04-22 19:40 -25.45631 -55.71967 13506 ft 262 kts 98°
2026-04-22 19:40 -25.45853 -55.69976 13131 ft 260 kts 98°
2026-04-22 19:41 -25.46084 -55.67986 12752 ft 259 kts 98°
2026-04-22 19:41 -25.46313 -55.66027 12378 ft 257 kts 98°
2026-04-22 19:41 -25.46542 -55.64063 12000 ft 255 kts 98°
2026-04-22 19:41 -25.46769 -55.62117 11623 ft 254 kts 98°
2026-04-22 19:42 -25.46992 -55.60194 11249 ft 252 kts 98°
2026-04-22 19:42 -25.47213 -55.58292 10878 ft 251 kts 98°
2026-04-22 19:42 -25.47436 -55.56369 10501 ft 250 kts 98°
2026-04-22 19:42 -25.47655 -55.54485 10129 ft 249 kts 98°
2026-04-22 19:43 -25.48093 -55.50704 9380 ft 247 kts 98°
2026-04-22 19:43 -25.48311 -55.48814 9004 ft 246 kts 98°
2026-04-22 19:43 -25.48526 -55.46953 8632 ft 245 kts 98°
2026-04-22 19:44 -25.48740 -55.45097 8260 ft 244 kts 98°
2026-04-22 19:44 -25.48953 -55.43250 7888 ft 243 kts 98°
2026-04-22 19:44 -25.49165 -55.41406 7515 ft 242 kts 98°
2026-04-22 19:44 -25.49378 -55.39553 7140 ft 242 kts 98°
2026-04-22 19:45 -25.49590 -55.37704 6764 ft 241 kts 98°
2026-04-22 19:45 -25.49800 -55.35873 6393 ft 240 kts 98°
2026-04-22 19:45 -25.50010 -55.34041 6018 ft 239 kts 97°
2026-04-22 19:45 -25.50217 -55.32232 5648 ft 239 kts 97°
2026-04-22 19:46 -25.50426 -55.30398 5271 ft 238 kts 97°
2026-04-22 19:46 -25.50632 -55.28593 4899 ft 238 kts 97°
2026-04-22 19:46 -25.50837 -55.26793 4528 ft 237 kts 97°
2026-04-22 19:46 -25.51043 -55.24985 4154 ft 236 kts 97°
2026-04-22 19:47 -25.51370 -55.23203 3773 ft 235 kts 111°
2026-04-22 19:47 -25.51977 -55.21548 3415 ft 234 kts 112°
2026-04-22 19:47 -25.52388 -55.20438 3166 ft 233 kts 112°
2026-04-22 19:47 -25.53188 -55.18281 2935 ft 218 kts 112°
2026-04-22 19:48 -25.53729 -55.16821 2956 ft 188 kts 112°
2026-04-22 19:48 -25.54197 -55.15559 2963 ft 167 kts 113°
2026-04-22 19:48 -25.54619 -55.14419 2917 ft 155 kts 113°
2026-04-22 19:48 -25.55029 -55.13311 2948 ft 155 kts 113°
2026-04-22 19:49 -25.55438 -55.12208 3009 ft 153 kts 113°
2026-04-22 19:49 -25.55845 -55.11110 2985 ft 156 kts 113°
2026-04-22 19:49 -25.56258 -55.09994 2959 ft 156 kts 113°
2026-04-22 19:49 -25.56671 -55.08878 2956 ft 156 kts 113°
2026-04-22 19:50 -25.57084 -55.07761 2952 ft 156 kts 113°
2026-04-22 19:50 -25.57492 -55.06657 2830 ft 157 kts 113°
2026-04-22 19:50 -25.57907 -55.05534 2700 ft 156 kts 113°
2026-04-22 19:50 -25.58315 -55.04433 2573 ft 155 kts 113°
2026-04-22 19:51 -25.58723 -55.03329 2446 ft 155 kts 113°
2026-04-22 19:51 -25.59131 -55.02224 2320 ft 154 kts 113°
2026-04-22 19:51 -25.59540 -55.01116 2194 ft 154 kts 113°
2026-04-22 19:51 -25.59946 -55.00015 2069 ft 154 kts 113°
2026-04-22 19:52 -25.60348 -54.98927 1965 ft 153 kts 113°
2026-04-22 19:52 -25.60751 -54.97834 1958 ft 152 kts 113°
2026-04-22 19:52 -25.61152 -54.96747 1957 ft 153 kts 113°
2026-04-22 19:52 -25.61558 -54.95647 1957 ft 153 kts 113°
2026-04-22 19:53 -25.61960 -54.94556 1956 ft 153 kts 113°
2026-04-22 19:53 -25.62366 -54.93456 1954 ft 153 kts 113°
2026-04-22 19:53 -25.62638 -54.92716 1955 ft 153 kts 113°
2026-04-22 19:53 -25.63175 -54.91260 1955 ft 153 kts 113°
2026-04-22 19:54 -25.63580 -54.90161 1955 ft 154 kts 113°
2026-04-22 19:54 -25.63980 -54.89073 1954 ft 154 kts 113°
2026-04-22 19:54 -25.64386 -54.87970 1955 ft 154 kts 113°
2026-04-22 19:54 -25.64791 -54.86871 1953 ft 153 kts 113°
2026-04-22 19:55 -25.65193 -54.85778 1954 ft 153 kts 113°
2026-04-22 19:55 -25.65597 -54.84680 1955 ft 153 kts 113°
2026-04-22 19:55 -25.66000 -54.83584 1954 ft 153 kts 113°
2026-04-22 19:55 -25.66402 -54.82489 1955 ft 153 kts 113°
2026-04-22 19:56 -25.66808 -54.81386 1954 ft 153 kts 113°
2026-04-22 19:56 -25.67209 -54.80295 1954 ft 153 kts 113°
2026-04-22 19:56 -25.67613 -54.79194 1955 ft 153 kts 113°
2026-04-22 19:56 -25.68013 -54.78104 1955 ft 153 kts 113°
2026-04-22 19:57 -25.68416 -54.77007 1954 ft 153 kts 113°
2026-04-22 19:57 -25.68821 -54.75905 1954 ft 153 kts 113°
2026-04-22 19:57 -25.69221 -54.74814 1955 ft 153 kts 113°
2026-04-22 19:57 -25.69586 -54.73686 1955 ft 154 kts 109°
2026-04-22 19:58 -25.69913 -54.72560 1956 ft 154 kts 109°
2026-04-22 19:58 -25.70241 -54.71433 1956 ft 154 kts 109°
2026-04-22 19:58 -25.70569 -54.70301 1954 ft 154 kts 109°
2026-04-22 19:58 -25.70895 -54.69179 1954 ft 154 kts 109°
2026-04-22 19:59 -25.71223 -54.68051 1955 ft 154 kts 109°
2026-04-22 20:00 -25.73192 -54.61262 1955 ft 154 kts 109°
2026-04-22 20:00 -25.73517 -54.60140 1954 ft 154 kts 109°
2026-04-22 20:01 -25.73845 -54.59005 1954 ft 154 kts 109°
2026-04-22 20:01 -25.74169 -54.57885 1956 ft 154 kts 109°
2026-04-22 20:01 -25.74499 -54.56748 1955 ft 154 kts 109°
2026-04-22 20:01 -25.74826 -54.55616 1954 ft 154 kts 109°
2026-04-22 20:02 -25.75150 -54.54496 1955 ft 154 kts 109°
2026-04-22 20:02 -25.75477 -54.53365 1955 ft 154 kts 109°
2026-04-22 20:02 -25.75803 -54.52237 1955 ft 154 kts 109°
2026-04-22 20:02 -25.76131 -54.51102 1956 ft 154 kts 109°
2026-04-22 20:03 -25.76455 -54.49980 1955 ft 154 kts 109°
2026-04-22 20:03 -25.76784 -54.48842 1954 ft 154 kts 109°
2026-04-22 20:03 -25.77112 -54.47705 1954 ft 154 kts 109°
2026-04-22 20:03 -25.77436 -54.46582 1954 ft 154 kts 109°
2026-04-22 20:04 -25.77762 -54.45451 1954 ft 154 kts 109°
2026-04-22 20:04 -25.78090 -54.44315 1953 ft 154 kts 109°
2026-04-22 20:04 -25.78414 -54.43191 1955 ft 154 kts 109°
2026-04-22 20:04 -25.78742 -54.42052 1955 ft 154 kts 109°
2026-04-22 20:05 -25.79066 -54.40929 1955 ft 154 kts 109°
2026-04-22 20:05 -25.79393 -54.39793 1956 ft 154 kts 109°
2026-04-22 20:05 -25.79717 -54.38667 1956 ft 154 kts 109°
2026-04-22 20:05 -25.80041 -54.37544 1953 ft 154 kts 109°
2026-04-22 20:06 -25.80369 -54.36402 1956 ft 154 kts 109°
2026-04-22 20:06 -25.80694 -54.35270 1955 ft 154 kts 109°
2026-04-22 20:06 -25.81019 -54.34141 1955 ft 154 kts 108°
2026-04-22 20:06 -25.81341 -54.33022 1955 ft 154 kts 108°
2026-04-22 20:07 -25.81667 -54.31887 1955 ft 153 kts 108°
2026-04-22 20:07 -25.81992 -54.30756 1954 ft 153 kts 108°
2026-04-22 20:07 -25.82314 -54.29634 1956 ft 153 kts 108°
2026-04-22 20:07 -25.82641 -54.28497 1955 ft 153 kts 108°
2026-04-22 20:08 -25.82962 -54.27378 1956 ft 153 kts 108°
2026-04-22 20:08 -25.83288 -54.26241 1955 ft 153 kts 108°
2026-04-22 20:08 -25.83613 -54.25107 1956 ft 153 kts 108°
2026-04-22 20:08 -25.83934 -54.23987 1954 ft 153 kts 108°
2026-04-22 20:09 -25.84059 -54.22817 1948 ft 153 kts 86°
2026-04-22 20:09 -25.84035 -54.21629 1960 ft 154 kts 93°
2026-04-22 20:09 -25.83956 -54.20467 1939 ft 155 kts 68°
2026-04-22 20:09 -25.83200 -54.19623 1958 ft 157 kts 22°
2026-04-22 20:10 -25.82132 -54.19594 1959 ft 157 kts 338°
2026-04-22 20:10 -25.81342 -54.20395 1962 ft 155 kts 294°
2026-04-22 20:10 -25.81075 -54.21534 1969 ft 154 kts 276°
2026-04-22 20:10 -25.80984 -54.22731 1959 ft 154 kts 272°
2026-04-22 20:11 -25.80991 -54.23921 1953 ft 153 kts 262°
2026-04-22 20:11 -25.81158 -54.25075 1958 ft 153 kts 259°
2026-04-22 20:11 -25.81239 -54.26268 1954 ft 154 kts 271°
2026-04-22 20:11 -25.81223 -54.27458 1957 ft 154 kts 269°
2026-04-22 20:12 -25.81228 -54.28635 1955 ft 154 kts 270°
2026-04-22 20:12 -25.81076 -54.29821 1955 ft 154 kts 285°
2026-04-22 20:12 -25.80830 -54.30566 1957 ft 155 kts 292°
2026-04-22 20:12 -25.80263 -54.32039 1955 ft 155 kts 291°
2026-04-22 20:13 -25.79851 -54.33138 1984 ft 154 kts 294°
2026-04-22 20:13 -25.79277 -54.34152 2108 ft 155 kts 303°
2026-04-22 20:13 -25.78710 -54.35174 2212 ft 156 kts 298°
2026-04-22 20:13 -25.78221 -54.36246 2213 ft 156 kts 292°
2026-04-22 20:14 -25.77818 -54.37377 2096 ft 157 kts 291°
2026-04-22 20:14 -25.77355 -54.38465 1912 ft 156 kts 294°
2026-04-22 20:14 -25.76913 -54.39539 1709 ft 154 kts 292°
2026-04-22 20:14 -25.76478 -54.40637 1554 ft 153 kts 292°
2026-04-22 20:15 -25.76044 -54.41707 1408 ft 153 kts 292°
2026-04-22 20:15 -25.75600 -54.42796 1299 ft 153 kts 294°
2026-04-22 20:15 -25.75155 -54.43869 1200 ft 153 kts 292°
2026-04-22 20:15 -25.74720 -54.44939 1028 ft 153 kts 293°
2026-04-22 20:16 -25.74271 -54.46017 921 ft 148 kts 292°
2026-04-22 20:16 -25.73970 -54.46758 890 ft 54 kts 298°
2026-04-22 20:16 -25.73830 -54.47071 887 ft 36 kts 294°
2026-04-22 20:16 -25.73754 -54.47230 886 ft 19 kts 304°
2026-04-22 20:17 -25.73680 -54.47304 884 ft 5 kts 322°
2026-04-22 20:17 -25.73679 -54.47305 884 ft 0 kts 322°
2026-04-22 20:17 -25.73640 -54.47339 883 ft 13 kts 322°
2026-04-22 20:17 -25.73559 -54.47407 881 ft 15 kts 323°
2026-04-22 20:18 -25.73470 -54.47481 881 ft 16 kts 323°
2026-04-22 20:18 -25.73393 -54.47542 881 ft 9 kts 325°
2026-04-22 20:18 -25.73346 -54.47588 882 ft 8 kts 301°
2026-04-22 20:18 -25.73316 -54.47642 883 ft 7 kts 303°
2026-04-22 20:19 -25.73274 -54.47671 883 ft 7 kts 11°
2026-04-22 20:19 -25.73240 -54.47658 882 ft 0 kts 20°